[[[{"header":{"parameterUnit":"kt","parameterCategory":2,"dx":1,"dy":1,"la1":30.253999710083008,"la2":30.299108505249023,"lo1":-89.0895004272461,"lo2":-89.04439544677734,"nx":28,"ny":28,"refTime":"2022-10-28T21:00:00:Z","depth":"0","parameterNumber":2,"parameterNumberName":"U-component_of_CURRENTS"},"data":[-0.1515,-0.1414,-0.1356,-0.1221,-0.1167,-0.1047,-0.1004,-0.0979,-0.0997,-0.1033,-0.1033,-0.1113,-0.1269,-0.1359,-0.1296,-0.1289,-0.1291,-0.1293,-0.1501,-0.1428,-0.1465,-0.1501,-0.1317,-0.1151,-0.1151,-0.1121,-0.1121,-0.1121,-0.1547,-0.1476,-0.1414,-0.1325,-0.1272,-0.1274,-0.1253,-0.1203,-0.1271,-0.1418,-0.159,-0.163,-0.1639,-0.1738,-0.1667,-0.1651,-0.1618,-0.1698,-0.1562,-0.1554,-0.1691,-0.1502,-0.1372,-0.1372,-0.1372,-0.1372,-0.1372,-0.1372,-0.1593,-0.1546,-0.1482,-0.1422,-0.1395,-0.1356,-0.1298,-0.1368,-0.1448,-0.1609,-0.1894,-0.2049,-0.2143,-0.2313,-0.2397,-0.2257,-0.2428,-0.2096,-0.2176,-0.2243,-0.2054,-0.2236,-0.2326,-0.2329,-0.2333,-0.2336,-0.2338,0,-0.1618,-0.1587,-0.1553,-0.1493,-0.1463,-0.1434,-0.1442,-0.1467,-0.1594,-0.1734,-0.2004,-0.2187,-0.2498,-0.2503,-0.2695,-0.2737,-0.259,-0.2694,-0.2634,-0.1973,-0.1972,-0.1948,-0.2147,-0.2221,-0.2225,-0.2227,-0.2229,-0.223,-0.1637,-0.1614,-0.1569,-0.1544,-0.153,-0.1516,-0.151,-0.1568,-0.161,-0.1876,-0.1946,-0.2234,-0.2416,-0.2759,-0.2772,-0.2912,-0.2874,-0.2767,-0.2495,-0.2408,-0.2482,-0.2512,-0.2456,-0.2267,-0.2262,-0.2258,-0.2255,0,-0.1641,-0.1625,-0.16,-0.1591,-0.1585,-0.1577,-0.1593,-0.1616,-0.1711,-0.1824,-0.1862,-0.2096,-0.232,-0.2466,-0.2665,-0.2666,-0.2732,-0.285,-0.2554,-0.2557,-0.2429,-0.2462,-0.2635,-0.2585,-0.2958,-0.2959,-0.296,0,-0.1644,-0.1637,-0.1609,-0.1601,-0.1598,-0.1622,-0.1643,-0.1683,-0.1765,-0.1833,-0.1913,-0.203,-0.2123,-0.2302,-0.2346,-0.2513,-0.2561,-0.2494,-0.2543,-0.2255,-0.2232,-0.2203,-0.2227,-0.251,-0.2507,-0.2504,-0.2502,0,-0.1631,-0.1634,-0.1622,-0.1626,-0.1641,-0.1651,-0.1669,-0.1736,-0.1765,-0.1864,-0.1925,-0.1999,-0.2078,-0.2141,-0.2254,-0.2172,-0.2467,-0.238,-0.2465,-0.247,-0.2289,-0.2273,-0.2219,-0.2498,-0.2498,-0.2497,-0.2496,0,-0.1631,-0.1619,-0.162,-0.1621,-0.1629,-0.165,-0.1705,-0.1739,-0.1821,-0.1854,-0.1898,-0.1933,-0.1985,-0.1933,-0.2083,-0.2006,-0.2083,-0.2139,-0.2153,-0.218,-0.2202,-0.2242,-0.2196,-0.2096,-0.2354,-0.2351,-0.2349,0,-0.1607,-0.1603,-0.1608,-0.1628,-0.163,-0.1665,-0.1697,-0.1742,-0.1784,-0.1843,-0.1859,-0.1892,-0.1841,-0.185,-0.1873,-0.1939,-0.2011,-0.1881,-0.2174,-0.2185,-0.2217,-0.22,-0.1892,-0.2162,-0.2315,-0.2318,-0.2321,0,-0.159,-0.1573,-0.1579,-0.1574,-0.1619,-0.1641,-0.168,-0.1728,-0.176,-0.179,-0.1844,-0.1824,-0.1829,-0.1854,-0.1856,-0.1891,-0.1966,-0.191,-0.1916,-0.2104,-0.2178,-0.2159,-0.2182,-0.1948,-0.195,-0.1952,-0.2294,0,-0.1555,-0.1559,-0.1564,-0.1585,-0.161,-0.1638,-0.168,-0.1703,-0.1727,-0.177,-0.179,-0.182,-0.1867,-0.1843,-0.1856,-0.1874,-0.1941,-0.1922,-0.203,-0.196,-0.2118,-0.2138,-0.1916,-0.1917,-0.1918,-0.192,0,0,-0.1542,-0.1549,-0.1557,-0.1569,-0.1595,-0.1633,-0.1659,-0.1698,-0.1772,-0.1793,-0.1802,-0.186,-0.1899,-0.1941,-0.1895,-0.1901,-0.1983,-0.1986,-0.1957,-0.1961,-0.1965,-0.2112,-0.2131,-0.1922,-0.1922,-0.1923,-0.1923,0,-0.1536,-0.154,-0.1543,-0.1566,-0.1608,-0.1654,-0.1648,-0.1718,-0.1755,-0.1791,-0.1835,-0.1843,-0.1925,-0.1972,-0.2002,-0.1919,-0.2071,-0.1909,-0.1903,-0.1966,-0.1967,-0.1969,-0.2114,-0.213,-0.1926,-0.1926,-0.1926,0,-0.1529,-0.1548,-0.1554,-0.1593,-0.1634,-0.1669,-0.1709,-0.1753,-0.179,-0.1874,-0.1933,-0.1953,-0.2017,-0.2048,-0.2063,-0.2109,-0.217,-0.2117,-0.2108,-0.2142,-0.2213,-0.2212,-0.2211,-0.2239,-0.2241,-0.2242,0,0,-0.1527,-0.1528,-0.1581,-0.1601,-0.1612,-0.1682,-0.1713,-0.1768,-0.1829,-0.186,-0.1939,-0.1998,-0.2033,-0.2082,-0.2126,-0.2159,-0.2249,-0.2157,-0.2142,-0.213,-0.2157,-0.2223,-0.222,-0.2246,-0.2246,-0.2247,0,0,-0.1548,-0.1588,-0.1601,-0.1626,-0.1668,-0.1765,-0.1789,-0.1822,-0.1883,-0.1899,-0.2008,-0.2037,-0.2059,-0.2117,-0.2162,-0.2182,-0.2235,-0.223,-0.2185,-0.2168,-0.2153,-0.2181,-0.2303,0,0,0,0,0,-0.1564,-0.157,-0.158,-0.1591,-0.1686,-0.174,-0.1758,-0.1848,-0.1868,-0.1882,-0.1945,-0.2043,-0.2152,-0.2196,-0.2221,-0.2224,-0.2305,-0.2295,-0.2285,-0.2231,-0.2212,-0.2195,0,0,0,0,0,0,-0.1569,-0.1581,-0.1581,-0.1668,-0.1691,-0.1741,-0.1814,-0.1839,-0.1871,-0.1883,-0.2022,-0.2047,-0.2146,-0.2192,-0.2213,-0.2213,-0.2296,-0.2301,-0.2292,-0.2284,-0.2225,-0.2209,-0.2195,0,0,0,0,0,-0.1574,-0.1583,-0.1705,-0.1671,-0.1691,-0.1802,-0.1815,-0.1837,-0.1868,-0.2007,-0.2034,-0.1931,-0.2142,-0.2167,-0.2205,-0.2201,-0.2283,-0.229,-0.2295,-0.2288,-0.2282,-0.2217,0,0,0,0,0,0,-0.1577,-0.1618,-0.1712,-0.1722,-0.1683,-0.1803,-0.1823,-0.1835,-0.1993,-0.2017,-0.1924,-0.1932,-0.214,-0.216,-0.2179,-0.219,-0.2272,-0.2279,-0.2284,-0.229,-0.2285,-0.228,0,0,0,0,0,0,-0.1613,-0.1626,-0.1717,-0.1727,-0.174,-0.1804,-0.1821,-0.1888,-0.1994,-0.1903,-0.1914,-0.1926,-0.2119,-0.2154,-0.2169,-0.2271,-0.2264,-0.2271,-0.2275,-0.2279,-0.2286,-0.2281,0,0,0,0,0,0,-0.1621,-0.1632,-0.1725,-0.1735,-0.1746,-0.1875,-0.1869,-0.1968,-0.1976,-0.1896,-0.1982,-0.1984,-0.2112,-0.2129,-0.2162,-0.2257,-0.2268,-0.2264,-0.2269,-0.2272,-0.2274,0,0,0,0,0,0,0,-0.1627,-0.1523,-0.1643,-0.1741,-0.1752,-0.1818,-0.1822,-0.1825,-0.1977,-0.1979,-0.1981,-0.1983,-0.2224,-0.2231,-0.2239,-0.2246,0,0,-0.2263,-0.2267,0,0,0,0,0,0,0,0,-0.1522,-0.1523,-0.1644,-0.1646,-0.1647,-0.1819,-0.1821,-0.1824,-0.1977,-0.1979,-0.1981,-0.1982,-0.2226,-0.2232,-0.2238,0,0,0,0,0,0,0,0,0,0,0,0,0,0,0,-0.1644,-0.1645,0,-0.1819,-0.1821,-0.1824,-0.1978,-0.1979,-0.198,-0.1982,-0.2227,-0.2233,-0.2238,0,0,0,0,0,0,0,0,0,0,0,0,0,0,0,0,0,0,0,0,0,0,0,0,0,0,0,0,0,0,0,0,0,0,0,0,0,0,0,0,0,0,0,0,0,0,0,0,0,0,0,0,0,0,0,0,0,0,0,0,0,0,0,0,0,0,0,0,0]}],[{"header":{"parameterUnit":"kt","parameterCategory":2,"dx":1,"dy":1,"la1":30.253999710083008,"la2":30.299108505249023,"lo1":-89.0895004272461,"lo2":-89.04439544677734,"nx":28,"ny":28,"refTime":"2022-10-28T21:00:00:Z","depth":"0","parameterNumber":3,"parameterNumberName":"V-component_of_CURRENTS"},"data":[-0.1468,-0.1515,-0.1568,-0.1685,-0.1757,-0.1857,-0.1923,-0.2038,-0.1913,-0.1456,-0.0793,-0.0214,0.0657,0.1343,0.1781,0.1799,0.1862,0.188,0.1862,0.1557,0.1498,0.1442,0.153,0.2,0.2001,0.2271,0.2274,0.2276,-0.15,-0.1546,-0.1621,-0.1713,-0.1794,-0.1847,-0.1963,-0.202,-0.2099,-0.186,-0.1705,-0.0687,-0.0039,0.0542,0.1177,0.1345,0.131,0.1376,0.1352,0.1368,0.0978,0.1062,0.144,0.144,0.144,0.144,0.144,0.1439,-0.1545,-0.1573,-0.164,-0.1717,-0.1791,-0.1882,-0.1931,-0.2008,-0.2057,-0.1994,-0.1867,-0.1461,-0.0738,0.0039,0.0208,0.0671,0.0539,0.0781,0.0779,0.0748,0.0898,0.0491,0.0725,0.0723,0.0721,0.072,0.0718,0,-0.157,-0.16,-0.164,-0.173,-0.1782,-0.1842,-0.1894,-0.1937,-0.1942,-0.1944,-0.188,-0.1709,-0.1206,-0.0694,-0.02,-0.0027,0.0124,0.0095,0.0196,0.0477,0.0521,0.062,0.0077,0.0212,0.0207,0.0204,0.0201,0.0199,-0.1567,-0.1602,-0.1678,-0.1713,-0.1733,-0.1779,-0.1812,-0.1813,-0.1834,-0.1791,-0.1794,-0.1587,-0.1381,-0.0971,-0.0621,-0.0294,-0.0239,-0.0032,0.0009,0.0153,0.0204,0.0198,0.0257,0.0147,0.0153,0.0159,0.0163,0,-0.1558,-0.1588,-0.1641,-0.1687,-0.1705,-0.1733,-0.1761,-0.1778,-0.1744,-0.1741,-0.1715,-0.1566,-0.1346,-0.1127,-0.092,-0.0749,-0.0427,-0.0455,-0.0333,-0.0269,0.0096,0.0116,0.0292,0.0383,-0.0215,-0.021,-0.0206,0,-0.1531,-0.1566,-0.16,-0.1625,-0.1682,-0.1667,-0.1704,-0.1674,-0.165,-0.1648,-0.1513,-0.1469,-0.1262,-0.1126,-0.0964,-0.0703,-0.0805,-0.0524,-0.0478,-0.0378,-0.0352,-0.0177,-0.0143,-0.07,-0.07,-0.07,-0.0701,0,-0.1467,-0.1514,-0.1569,-0.1575,-0.1585,-0.1605,-0.1601,-0.156,-0.1557,-0.1484,-0.1457,-0.1331,-0.1239,-0.113,-0.0896,-0.0898,-0.0759,-0.0747,-0.0517,-0.0504,-0.0329,-0.0296,-0.0193,-0.0701,-0.0701,-0.0701,-0.0701,0,-0.1408,-0.1436,-0.1502,-0.1514,-0.1517,-0.1535,-0.1523,-0.1521,-0.1457,-0.1413,-0.1326,-0.1215,-0.1106,-0.1022,-0.087,-0.0877,-0.0785,-0.071,-0.0707,-0.0469,-0.0399,-0.0273,-0.0262,-0.0132,-0.0648,-0.0648,-0.0648,0,-0.1339,-0.1394,-0.1374,-0.1419,-0.1434,-0.1378,-0.1393,-0.1358,-0.1306,-0.1273,-0.1153,-0.1076,-0.0954,-0.0886,-0.0847,-0.0707,-0.0699,-0.0702,-0.059,-0.0586,-0.0435,-0.046,-0.0325,-0.0274,-0.0646,-0.0646,-0.0646,0,-0.1265,-0.1262,-0.1266,-0.127,-0.1242,-0.124,-0.1252,-0.1224,-0.1215,-0.1147,-0.113,-0.0983,-0.0893,-0.0818,-0.0703,-0.0678,-0.0691,-0.0602,-0.0598,-0.0615,-0.0669,-0.048,-0.0464,-0.067,-0.0671,-0.0671,-0.0645,0,-0.1173,-0.1186,-0.1205,-0.1186,-0.1179,-0.1193,-0.1137,-0.1125,-0.107,-0.1018,-0.0955,-0.0835,-0.0723,-0.068,-0.0589,-0.0563,-0.0532,-0.0493,-0.0453,-0.0505,-0.0482,-0.0484,-0.0419,-0.0416,-0.0413,-0.0411,0,0,-0.1091,-0.1108,-0.1053,-0.1069,-0.1061,-0.0975,-0.1001,-0.0968,-0.0902,-0.0883,-0.0838,-0.0679,-0.0582,-0.0513,-0.0499,-0.046,-0.044,-0.0435,-0.0469,-0.0476,-0.0482,-0.0465,-0.0469,-0.0407,-0.0406,-0.0406,-0.0405,0,-0.1045,-0.102,-0.1044,-0.1022,-0.0983,-0.094,-0.0943,-0.088,-0.0849,-0.0826,-0.0716,-0.0644,-0.0546,-0.0463,-0.0405,-0.0435,-0.036,-0.0394,-0.0463,-0.045,-0.046,-0.0468,-0.0454,-0.046,-0.0399,-0.0399,-0.04,0,-0.0965,-0.0938,-0.0941,-0.0913,-0.0875,-0.0874,-0.079,-0.0781,-0.0778,-0.065,-0.0629,-0.054,-0.0423,-0.0384,-0.0356,-0.0329,-0.0303,-0.0289,-0.0299,-0.0292,-0.0274,-0.0285,-0.0296,-0.0169,-0.0169,-0.0169,0,0,-0.0928,-0.0934,-0.0876,-0.0896,-0.0881,-0.0807,-0.079,-0.0745,-0.0688,-0.066,-0.0585,-0.0496,-0.0422,-0.0385,-0.0316,-0.0293,-0.0255,-0.0269,-0.028,-0.0289,-0.0288,-0.0272,-0.0283,-0.0168,-0.0168,-0.0168,0,0,-0.0903,-0.0848,-0.0813,-0.0835,-0.08,-0.0727,-0.073,-0.0679,-0.0625,-0.0611,-0.05,-0.0476,-0.0431,-0.0364,-0.0377,-0.0288,-0.0233,-0.023,-0.0356,-0.0368,-0.0378,-0.0395,-0.0275,0,0,0,0,0,-0.0821,-0.086,-0.0829,-0.0824,-0.0769,-0.0748,-0.0738,-0.0664,-0.0617,-0.0625,-0.0548,-0.0476,-0.034,-0.0349,-0.0331,-0.0329,-0.0168,-0.0168,-0.0168,-0.0322,-0.0336,-0.0347,0,0,0,0,0,0,-0.0819,-0.0814,-0.0827,-0.0762,-0.0748,-0.0746,-0.0663,-0.0644,-0.0615,-0.0603,-0.0495,-0.0473,-0.0399,-0.0352,-0.0337,-0.0337,-0.028,-0.0168,-0.0168,-0.0168,-0.0327,-0.0338,-0.0347,0,0,0,0,0,-0.0816,-0.0812,-0.0748,-0.076,-0.0748,-0.0661,-0.0661,-0.0644,-0.0616,-0.0512,-0.0489,-0.0562,-0.0403,-0.0383,-0.0343,-0.0346,-0.0289,-0.0284,-0.0168,-0.0168,-0.0168,-0.0332,0,0,0,0,0,0,-0.0814,-0.0788,-0.0743,-0.0736,-0.0741,-0.0659,-0.0646,-0.0645,-0.0523,-0.0503,-0.0574,-0.0566,-0.0405,-0.039,-0.0375,-0.0353,-0.0297,-0.0292,-0.0288,-0.0168,-0.0168,-0.0168,0,0,0,0,0,0,-0.079,-0.0783,-0.0739,-0.072,-0.071,-0.0657,-0.0646,-0.0601,-0.0521,-0.059,-0.0581,-0.0571,-0.0414,-0.0395,-0.0383,-0.0317,-0.0303,-0.0298,-0.0294,-0.0292,-0.0168,-0.0168,0,0,0,0,0,0,-0.0785,-0.0779,-0.0721,-0.0714,-0.0704,-0.0615,-0.0613,-0.0552,-0.0536,-0.0596,-0.0529,-0.0526,-0.042,-0.0407,-0.0389,-0.0328,-0.032,-0.0303,-0.0299,-0.0297,-0.0295,0,0,0,0,0,0,0,-0.0781,-0.0845,-0.0789,-0.0708,-0.07,-0.0669,-0.0667,-0.0665,-0.0535,-0.0533,-0.053,-0.0528,-0.0331,-0.0326,-0.032,-0.0338,0,0,-0.0303,-0.0301,0,0,0,0,0,0,0,0,-0.0845,-0.0845,-0.0789,-0.0787,-0.0786,-0.0669,-0.0667,-0.0665,-0.0535,-0.0533,-0.053,-0.0529,-0.033,-0.0325,-0.0321,0,0,0,0,0,0,0,0,0,0,0,0,0,0,0,-0.0789,-0.0787,0,-0.0668,-0.0667,-0.0665,-0.0534,-0.0533,-0.0531,-0.0529,-0.0329,-0.0325,-0.0321,0,0,0,0,0,0,0,0,0,0,0,0,0,0,0,0,0,0,0,0,0,0,0,0,0,0,0,0,0,0,0,0,0,0,0,0,0,0,0,0,0,0,0,0,0,0,0,0,0,0,0,0,0,0,0,0,0,0,0,0,0,0,0,0,0,0,0,0,0]}]],[[{"header":{"parameterUnit":"kt","parameterCategory":2,"dx":1,"dy":1,"la1":30.253999710083008,"la2":30.299108505249023,"lo1":-89.0895004272461,"lo2":-89.04439544677734,"nx":28,"ny":28,"refTime":"2022-10-28T21:00:00:Z","depth":"2","parameterNumber":2,"parameterNumberName":"U-component_of_CURRENTS"},"data":[-0.1302,-0.1291,-0.1304,-0.1308,-0.1322,-0.1303,-0.1319,-0.1381,-0.1378,-0.1388,-0.1269,-0.1247,-0.1213,-0.0874,-0.0841,-0.0713,-0.089,-0.069,-0.1351,-0.121,-0.1247,-0.1353,-0.1067,0,0,0,0,0,-0.1336,-0.1334,-0.1378,-0.1428,-0.1449,-0.1489,-0.157,-0.1595,-0.167,-0.1708,-0.1789,-0.1547,-0.1379,-0.1391,-0.1109,-0.1093,-0.102,-0.1157,-0.101,-0.1052,-0.109,-0.0876,-0.0672,-0.0671,-0.067,-0.0668,0,0,-0.1396,-0.1404,-0.1443,-0.1499,-0.155,-0.1597,-0.1621,-0.1718,-0.1814,-0.1908,-0.2083,-0.2057,-0.2005,-0.1757,-0.1741,-0.1678,-0.179,-0.1697,-0.1707,-0.1723,-0.1547,-0.153,-0.1516,-0.152,-0.1523,-0.1526,-0.1529,0,-0.1441,-0.1454,-0.1505,-0.1569,-0.1612,-0.1686,-0.1745,-0.1798,-0.1906,-0.2007,-0.2172,-0.2247,-0.23,-0.2125,-0.214,-0.21,-0.2072,-0.2039,-0.249,-0.1563,-0.1552,-0.157,-0.1579,-0.1563,-0.1568,-0.1571,-0.1573,-0.1575,-0.1474,-0.1495,-0.1599,-0.1634,-0.1669,-0.1728,-0.1764,-0.1848,-0.189,-0.2067,-0.2098,-0.2251,-0.2308,-0.2458,-0.2309,-0.2326,-0.2445,-0.2143,-0.1866,-0.2229,-0.2251,-0.2238,-0.2226,-0.1623,-0.1617,-0.1612,-0.1608,0,-0.1486,-0.1552,-0.1619,-0.1716,-0.1745,-0.1768,-0.186,-0.1891,-0.1943,-0.2013,-0.2014,-0.2116,-0.2205,-0.2252,-0.2331,-0.2258,-0.2302,-0.2331,-0.2062,-0.2051,-0.2235,-0.2222,-0.2355,-0.2354,-0.2354,-0.2354,-0.2354,0,-0.1542,-0.1585,-0.1681,-0.1708,-0.1766,-0.182,-0.1865,-0.189,-0.1944,-0.1989,-0.1971,-0.2028,-0.1985,-0.208,-0.2068,-0.2118,-0.217,-0.2045,-0.2079,-0.1794,-0.177,-0.2031,-0.2024,-0.2071,-0.2068,-0.2066,-0.2064,0,-0.1543,-0.1651,-0.1699,-0.173,-0.1828,-0.184,-0.1869,-0.1904,-0.1932,-0.1946,-0.1987,-0.1949,-0.1954,-0.1948,-0.1971,-0.1902,-0.2089,-0.2003,-0.203,-0.2034,-0.1805,-0.1784,-0.2061,-0.206,-0.206,-0.2059,-0.2058,0,-0.1582,-0.1645,-0.1708,-0.1802,-0.1824,-0.1844,-0.1894,-0.1912,-0.1934,-0.1943,-0.1912,-0.1894,-0.1847,-0.1785,-0.1817,-0.1769,-0.1816,-0.1843,-0.1855,-0.1809,-0.1834,-0.1833,-0.1769,-0.2052,-0.205,-0.2049,-0.2047,0,-0.1567,-0.165,-0.1695,-0.1756,-0.1804,-0.1835,-0.1852,-0.1871,-0.1884,-0.191,-0.1846,-0.1829,-0.1742,-0.1724,-0.17,-0.1709,-0.1755,-0.1657,-0.1866,-0.1874,-0.1861,-0.1832,-0.1515,-0.1753,-0.2024,-0.2027,-0.2028,0,-0.1554,-0.1658,-0.1663,-0.1706,-0.1767,-0.1798,-0.181,-0.184,-0.1861,-0.1842,-0.1866,-0.1764,-0.174,-0.1722,-0.1684,-0.1681,-0.1731,-0.1695,-0.1697,-0.1875,-0.1875,-0.1815,-0.1827,-0.1697,-0.1697,-0.1697,-0.201,0,-0.1601,-0.1638,-0.1655,-0.1724,-0.175,-0.1782,-0.1816,-0.1824,-0.1829,-0.184,-0.1812,-0.1774,-0.1756,-0.1725,-0.1707,-0.1674,-0.1752,-0.1712,-0.1781,-0.1723,-0.1872,-0.1886,-0.173,-0.1731,-0.1731,-0.1732,0,0,-0.1573,-0.1626,-0.1664,-0.1706,-0.1735,-0.1764,-0.18,-0.1805,-0.184,-0.1843,-0.1839,-0.1808,-0.1797,-0.1767,-0.1714,-0.1716,-0.1786,-0.1779,-0.1728,-0.1727,-0.1727,-0.1866,-0.1878,-0.1733,-0.1733,-0.1733,-0.1733,0,-0.1604,-0.1626,-0.1656,-0.1691,-0.1744,-0.1768,-0.1779,-0.1825,-0.1824,-0.1841,-0.1823,-0.1792,-0.1828,-0.1798,-0.1792,-0.1729,-0.1837,-0.1723,-0.1717,-0.1732,-0.1731,-0.173,-0.1866,-0.1877,-0.1734,-0.1734,-0.1734,0,-0.1617,-0.1659,-0.1672,-0.1728,-0.1753,-0.1788,-0.18,-0.1825,-0.1839,-0.1863,-0.1873,-0.1858,-0.1857,-0.1845,-0.1845,-0.1874,-0.1902,-0.1865,-0.186,-0.1872,-0.1891,-0.1888,-0.1885,-0.1937,-0.1938,-0.1939,0,0,-0.1639,-0.1667,-0.1727,-0.1739,-0.1759,-0.1795,-0.1808,-0.1825,-0.1845,-0.1846,-0.1877,-0.1879,-0.1868,-0.1889,-0.1888,-0.1907,-0.1963,-0.1893,-0.1883,-0.1876,-0.1884,-0.19,-0.1895,-0.1943,-0.1943,-0.1943,0,0,-0.1647,-0.1719,-0.1732,-0.1754,-0.1789,-0.1831,-0.1831,-0.1847,-0.1851,-0.1846,-0.1886,-0.1896,-0.189,-0.1914,-0.1955,-0.1917,-0.1948,-0.1943,-0.1936,-0.1924,-0.1915,-0.1925,-0.2013,0,0,0,0,0,-0.1713,-0.1717,-0.1729,-0.1739,-0.179,-0.183,-0.1834,-0.1846,-0.1846,-0.1846,-0.185,-0.1901,-0.1912,-0.1951,-0.1967,-0.1961,-0.1991,-0.1982,-0.1974,-0.1966,-0.1953,-0.1942,0,0,0,0,0,0,-0.1717,-0.173,-0.1729,-0.1774,-0.1786,-0.1829,-0.183,-0.1832,-0.1846,-0.1845,-0.1893,-0.1903,-0.193,-0.1948,-0.1962,-0.1954,-0.2008,-0.1988,-0.198,-0.1974,-0.1962,-0.1951,-0.1942,0,0,0,0,0,-0.1721,-0.1732,-0.181,-0.1773,-0.1784,-0.1808,-0.1828,-0.1831,-0.1834,-0.1889,-0.1896,-0.1843,-0.1929,-0.1943,-0.1957,-0.1946,-0.2,-0.2004,-0.1983,-0.1977,-0.1972,-0.1957,0,0,0,0,0,0,-0.1724,-0.1722,-0.1812,-0.1816,-0.1769,-0.1805,-0.1811,-0.183,-0.1877,-0.1885,-0.1843,-0.1842,-0.1929,-0.194,-0.195,-0.1939,-0.1992,-0.1997,-0.2,-0.1978,-0.1974,-0.197,0,0,0,0,0,0,-0.1717,-0.1725,-0.1814,-0.1808,-0.181,-0.1802,-0.1808,-0.186,-0.1879,-0.1828,-0.1829,-0.1842,-0.1934,-0.1938,-0.1946,-0.2024,-0.1987,-0.1992,-0.1995,-0.1997,-0.1975,-0.1971,0,0,0,0,0,0,-0.172,-0.1727,-0.1806,-0.1808,-0.181,-0.1844,-0.1849,-0.1909,-0.1844,-0.1826,-0.1843,-0.1843,-0.1934,-0.1941,-0.1943,-0.2017,-0.2022,-0.1987,-0.199,-0.1992,-0.1994,0,0,0,0,0,0,0,-0.1723,-0.1679,-0.1799,-0.1809,-0.1811,-0.1848,-0.1849,-0.1849,-0.1844,-0.1844,-0.1843,-0.1843,-0.1961,-0.1966,-0.1971,-0.2011,0,0,-0.1987,-0.1989,0,0,0,0,0,0,0,0,-0.1676,-0.1678,-0.18,-0.1801,-0.1802,-0.1849,-0.1849,-0.1849,-0.1844,-0.1844,-0.1843,-0.1843,-0.1962,-0.1966,-0.197,0,0,0,0,0,0,0,0,0,0,0,0,0,0,0,-0.18,-0.1801,0,-0.1849,-0.1849,-0.1849,-0.1844,-0.1844,-0.1844,-0.1843,-0.1963,-0.1966,-0.197,0,0,0,0,0,0,0,0,0,0,0,0,0,0,0,0,0,0,0,0,0,0,0,0,0,0,0,0,0,0,0,0,0,0,0,0,0,0,0,0,0,0,0,0,0,0,0,0,0,0,0,0,0,0,0,0,0,0,0,0,0,0,0,0,0,0,0,0,0]}],[{"header":{"parameterUnit":"kt","parameterCategory":2,"dx":1,"dy":1,"la1":30.253999710083008,"la2":30.299108505249023,"lo1":-89.0895004272461,"lo2":-89.04439544677734,"nx":28,"ny":28,"refTime":"2022-10-28T21:00:00:Z","depth":"2","parameterNumber":3,"parameterNumberName":"V-component_of_CURRENTS"},"data":[-0.0731,-0.0814,-0.0867,-0.1027,-0.1115,-0.1258,-0.1337,-0.1403,-0.1286,-0.1031,-0.0709,-0.0235,0.0192,0.0406,0.0586,0.0669,0.056,0.0659,0.0704,0.0416,0.0393,0.0478,0.0512,0,0,0,0,0,-0.072,-0.0795,-0.0877,-0.0981,-0.1072,-0.1117,-0.1246,-0.1293,-0.1378,-0.1188,-0.1054,-0.0483,0.0007,0.0337,0.06,0.0805,0.0683,0.0814,0.0607,0.0587,0.0567,0.06,0.0777,0.0776,0.0776,0.0776,0,0,-0.0711,-0.0753,-0.0829,-0.0909,-0.0988,-0.1091,-0.1155,-0.1233,-0.129,-0.1281,-0.1159,-0.0845,-0.0481,0.0272,0.0454,0.059,0.06,0.0648,0.063,0.0611,0.0657,0.0669,0.0844,0.0844,0.0845,0.0845,0.0845,0,-0.0684,-0.073,-0.0756,-0.0849,-0.0916,-0.0968,-0.1041,-0.1097,-0.1117,-0.1142,-0.1146,-0.1003,-0.0628,-0.0237,0.0218,0.0366,0.0335,0.0435,0.0295,0.0273,0.0267,0.0266,0.025,0.0363,0.0361,0.0359,0.0358,0.0357,-0.0671,-0.0692,-0.0739,-0.0775,-0.0799,-0.0845,-0.0884,-0.0878,-0.0917,-0.0944,-0.0983,-0.0869,-0.0699,-0.0349,-0.0083,0.0221,0.0175,0.0359,0.0393,0.0272,0.0276,0.0262,0.025,0.0331,0.0334,0.0337,0.0339,0,-0.0667,-0.0671,-0.0684,-0.0687,-0.0702,-0.0728,-0.0765,-0.0785,-0.0781,-0.0833,-0.0849,-0.0756,-0.0617,-0.043,-0.0288,-0.0128,0.004,0.0122,0.0059,0.0079,0.0219,0.0214,0.0354,0.0361,0.0367,0.0372,0.0376,0,-0.0641,-0.0643,-0.0656,-0.066,-0.0677,-0.0632,-0.0659,-0.0617,-0.0614,-0.0645,-0.0552,-0.0573,-0.0444,-0.037,-0.0266,-0.0084,-0.017,0.0055,0.0076,0.0023,0.0033,-0.0112,-0.0114,-0.0099,-0.0099,-0.0099,-0.0099,0,-0.064,-0.0613,-0.0618,-0.0603,-0.0555,-0.0561,-0.0539,-0.0482,-0.0483,-0.0447,-0.0482,-0.0382,-0.042,-0.0321,-0.0252,-0.0264,-0.0172,-0.0178,0.0025,0.0035,0.004,0.0052,-0.01,-0.01,-0.01,-0.01,-0.01,0,-0.0611,-0.0607,-0.0598,-0.0562,-0.0554,-0.0534,-0.0484,-0.0444,-0.0385,-0.0381,-0.0345,-0.0334,-0.0291,-0.0292,-0.0213,-0.0244,-0.0216,-0.0193,-0.0191,0.0,0.0003,0.0005,0.0032,-0.0189,-0.019,-0.0191,-0.0191,0,-0.0614,-0.0604,-0.0579,-0.0546,-0.0529,-0.0477,-0.0436,-0.0378,-0.0351,-0.0332,-0.0287,-0.0292,-0.0259,-0.0299,-0.025,-0.0248,-0.021,-0.0232,-0.0184,-0.0182,-0.0015,0.0015,-0.002,0.0015,-0.0199,-0.0198,-0.0198,0,-0.0613,-0.0593,-0.0596,-0.059,-0.0528,-0.0493,-0.0442,-0.0375,-0.0369,-0.0326,-0.0315,-0.0265,-0.0282,-0.0256,-0.0251,-0.0222,-0.0223,-0.0243,-0.024,-0.0224,-0.0193,-0.002,0.0001,-0.0229,-0.0227,-0.0226,-0.0204,0,-0.0591,-0.0593,-0.059,-0.0564,-0.0525,-0.0497,-0.0442,-0.0414,-0.041,-0.037,-0.0348,-0.0317,-0.0285,-0.0284,-0.0273,-0.0246,-0.0261,-0.0249,-0.0208,-0.0228,-0.022,-0.0215,-0.0258,-0.0258,-0.0257,-0.0256,0,0,-0.06,-0.0597,-0.0583,-0.0568,-0.0543,-0.0505,-0.0478,-0.0434,-0.0378,-0.0363,-0.0382,-0.0328,-0.0296,-0.0241,-0.0259,-0.0249,-0.025,-0.0229,-0.0231,-0.0229,-0.0226,-0.0219,-0.0215,-0.0255,-0.0255,-0.0255,-0.0254,0,-0.0587,-0.0595,-0.0601,-0.0566,-0.0536,-0.0489,-0.0491,-0.0435,-0.0414,-0.0382,-0.0366,-0.0352,-0.0302,-0.0255,-0.023,-0.0244,-0.0212,-0.026,-0.0255,-0.0227,-0.0225,-0.0224,-0.0216,-0.0214,-0.0253,-0.0253,-0.0253,0,-0.0583,-0.0574,-0.0577,-0.054,-0.0511,-0.047,-0.0456,-0.0426,-0.0391,-0.036,-0.0324,-0.0315,-0.0267,-0.0237,-0.0225,-0.0206,-0.0174,-0.0184,-0.0188,-0.0165,-0.0133,-0.0132,-0.0131,-0.0133,-0.0133,-0.0133,0,0,-0.0577,-0.0584,-0.0537,-0.0533,-0.0521,-0.0471,-0.0447,-0.0419,-0.0379,-0.0364,-0.0325,-0.0297,-0.0266,-0.0242,-0.0207,-0.0175,-0.0146,-0.017,-0.0176,-0.0181,-0.016,-0.013,-0.013,-0.0131,-0.0131,-0.0131,0,0,-0.0558,-0.0537,-0.0541,-0.0534,-0.0487,-0.041,-0.0398,-0.0379,-0.0342,-0.036,-0.0303,-0.0289,-0.0271,-0.0236,-0.0227,-0.0189,-0.0167,-0.0167,-0.02,-0.0206,-0.0212,-0.0195,-0.017,0,0,0,0,0,-0.0543,-0.0544,-0.0549,-0.0545,-0.0486,-0.0418,-0.0404,-0.0363,-0.0379,-0.0355,-0.0336,-0.0298,-0.0223,-0.0213,-0.0197,-0.0194,-0.0115,-0.0118,-0.0121,-0.0157,-0.0165,-0.0171,0,0,0,0,0,0,-0.0541,-0.0536,-0.0548,-0.0482,-0.0468,-0.0419,-0.0408,-0.0394,-0.0379,-0.0376,-0.0306,-0.0295,-0.0246,-0.0216,-0.0203,-0.0202,-0.0174,-0.0116,-0.0119,-0.0121,-0.016,-0.0166,-0.0171,0,0,0,0,0,-0.0538,-0.0534,-0.0465,-0.0479,-0.0467,-0.0411,-0.0408,-0.0397,-0.0381,-0.031,-0.0299,-0.0357,-0.0246,-0.0233,-0.0208,-0.0209,-0.0182,-0.0178,-0.0118,-0.012,-0.0121,-0.0163,0,0,0,0,0,0,-0.0537,-0.0503,-0.046,-0.0453,-0.0491,-0.0411,-0.0401,-0.04,-0.0316,-0.0305,-0.0358,-0.0356,-0.0246,-0.0236,-0.0226,-0.0215,-0.0189,-0.0185,-0.0182,-0.0119,-0.0121,-0.0122,0,0,0,0,0,0,-0.0505,-0.0497,-0.0456,-0.0473,-0.0468,-0.0411,-0.0403,-0.0355,-0.0316,-0.0366,-0.0363,-0.0358,-0.0272,-0.0238,-0.023,-0.0154,-0.0195,-0.019,-0.0187,-0.0185,-0.012,-0.0122,0,0,0,0,0,0,-0.05,-0.0493,-0.0474,-0.047,-0.0465,-0.0377,-0.0366,-0.0313,-0.0323,-0.037,-0.0325,-0.0326,-0.0275,-0.0266,-0.0233,-0.016,-0.0155,-0.0194,-0.0191,-0.0189,-0.0188,0,0,0,0,0,0,0,-0.0496,-0.0563,-0.051,-0.0467,-0.0463,-0.0389,-0.0386,-0.0384,-0.0323,-0.0324,-0.0325,-0.0325,-0.022,-0.0215,-0.021,-0.0165,0,0,-0.0195,-0.0193,0,0,0,0,0,0,0,0,-0.0563,-0.0563,-0.051,-0.0509,-0.0508,-0.0389,-0.0386,-0.0384,-0.0323,-0.0324,-0.0324,-0.0325,-0.0218,-0.0215,-0.0211,0,0,0,0,0,0,0,0,0,0,0,0,0,0,0,-0.051,-0.0509,0,-0.0388,-0.0387,-0.0385,-0.0323,-0.0324,-0.0324,-0.0325,-0.0217,-0.0214,-0.0211,0,0,0,0,0,0,0,0,0,0,0,0,0,0,0,0,0,0,0,0,0,0,0,0,0,0,0,0,0,0,0,0,0,0,0,0,0,0,0,0,0,0,0,0,0,0,0,0,0,0,0,0,0,0,0,0,0,0,0,0,0,0,0,0,0,0,0,0,0]}]],[[{"header":{"parameterUnit":"kt","parameterCategory":2,"dx":1,"dy":1,"la1":30.253999710083008,"la2":30.299108505249023,"lo1":-89.0895004272461,"lo2":-89.04439544677734,"nx":28,"ny":28,"refTime":"2022-10-28T21:00:00:Z","depth":"4","parameterNumber":2,"parameterNumberName":"U-component_of_CURRENTS"},"data":[-0.0722,-0.0762,-0.0777,-0.081,-0.0834,-0.0918,-0.0989,-0.1075,-0.1075,-0.1183,-0.1146,-0.1229,-0.1176,-0.1254,-0.1153,-0.1157,-0.1141,-0.1212,-0.121,-0.1219,-0.1225,-0.123,-0.1173,0,0,0,0,0,-0.0751,-0.0757,-0.0811,-0.0875,-0.0956,-0.0999,-0.1125,-0.1193,-0.131,-0.1284,-0.1339,-0.1307,-0.1265,-0.127,-0.1193,-0.1287,-0.1238,-0.1197,-0.1202,-0.1223,-0.1229,-0.1171,0,0,0,0,0,0,-0.0798,-0.0813,-0.0873,-0.0933,-0.1019,-0.1076,-0.1144,-0.1208,-0.1269,-0.1398,-0.1389,-0.1408,-0.1447,-0.1372,-0.1321,-0.1267,-0.1236,-0.1201,-0.1208,-0.1214,-0.1164,-0.1163,-0.1123,0,0,0,0,0,-0.0833,-0.0868,-0.0921,-0.0998,-0.1068,-0.1148,-0.1242,-0.1277,-0.1395,-0.1481,-0.1491,-0.1477,-0.1463,-0.1405,-0.1366,-0.1297,-0.134,-0.1307,-0.131,-0.1252,-0.1258,-0.1245,-0.1246,-0.1254,-0.1255,-0.1255,-0.1256,0,-0.0872,-0.0898,-0.1011,-0.1053,-0.1104,-0.1197,-0.1255,-0.1367,-0.1411,-0.1525,-0.1533,-0.1569,-0.157,-0.1464,-0.1438,-0.1362,-0.1324,-0.1325,-0.1263,-0.1269,-0.1254,-0.1253,-0.1252,-0.1261,-0.1261,-0.126,-0.126,0,-0.0891,-0.0952,-0.1018,-0.1129,-0.117,-0.1222,-0.1342,-0.1387,-0.1467,-0.1515,-0.1535,-0.1577,-0.1558,-0.1528,-0.1482,-0.1421,-0.1362,-0.1328,-0.1404,-0.1391,-0.1263,-0.126,-0.127,-0.1268,-0.1266,-0.1265,-0.1264,0,-0.0937,-0.0985,-0.1082,-0.1107,-0.1187,-0.1255,-0.1331,-0.1383,-0.1447,-0.1482,-0.1505,-0.1521,-0.1498,-0.1486,-0.1433,-0.1371,-0.1407,-0.1294,-0.1279,-0.1318,-0.1315,-0.1289,-0.1283,-0.1341,-0.134,-0.134,-0.134,0,-0.0948,-0.1031,-0.1084,-0.1109,-0.1202,-0.1248,-0.1302,-0.1359,-0.1398,-0.1442,-0.1472,-0.1466,-0.1477,-0.1441,-0.1399,-0.1385,-0.138,-0.1351,-0.1278,-0.1275,-0.1284,-0.1279,-0.1339,-0.1339,-0.1339,-0.1339,-0.1339,0,-0.0971,-0.1015,-0.1072,-0.1163,-0.1184,-0.1221,-0.1305,-0.134,-0.1376,-0.1396,-0.1402,-0.1393,-0.1397,-0.1357,-0.1346,-0.1341,-0.132,-0.13,-0.1301,-0.1214,-0.118,-0.124,-0.1308,-0.1308,-0.1307,-0.1307,-0.1306,0,-0.0971,-0.1023,-0.1052,-0.1112,-0.1145,-0.1183,-0.1226,-0.1261,-0.1285,-0.1316,-0.1299,-0.1318,-0.1285,-0.1298,-0.1286,-0.127,-0.1275,-0.1255,-0.1238,-0.1238,-0.1173,-0.1217,-0.1245,-0.1299,-0.13,-0.1301,-0.1301,0,-0.0959,-0.102,-0.1025,-0.1058,-0.1098,-0.1124,-0.1167,-0.1203,-0.1236,-0.1241,-0.1272,-0.1267,-0.1258,-0.125,-0.1236,-0.123,-0.1265,-0.1211,-0.1209,-0.1231,-0.1281,-0.1218,-0.1216,-0.1243,-0.1243,-0.1243,-0.1297,0,-0.0976,-0.1002,-0.1017,-0.1047,-0.1073,-0.1099,-0.1121,-0.1149,-0.1165,-0.1166,-0.1194,-0.1178,-0.1179,-0.1179,-0.1165,-0.1186,-0.1187,-0.1155,-0.1119,-0.1162,-0.1181,-0.1186,-0.1118,-0.1116,-0.1115,-0.1114,0,0,-0.0956,-0.0978,-0.0991,-0.1011,-0.1032,-0.104,-0.1067,-0.1078,-0.1094,-0.1108,-0.1103,-0.1109,-0.1094,-0.1106,-0.1125,-0.1117,-0.1121,-0.1108,-0.1144,-0.1148,-0.1151,-0.1171,-0.1177,-0.1112,-0.1112,-0.1111,-0.1111,0,-0.0951,-0.0967,-0.0983,-0.0997,-0.1019,-0.1024,-0.1037,-0.1049,-0.1061,-0.1083,-0.1068,-0.1075,-0.1074,-0.1064,-0.1057,-0.1102,-0.1076,-0.1106,-0.1142,-0.1135,-0.114,-0.1144,-0.1166,-0.1171,-0.1108,-0.1109,-0.1109,0,-0.0937,-0.0946,-0.0955,-0.0973,-0.0981,-0.1,-0.0987,-0.1009,-0.1026,-0.0995,-0.1022,-0.1015,-0.0996,-0.1012,-0.1018,-0.1,-0.1035,-0.1019,-0.1024,-0.1019,-0.101,-0.1016,-0.1022,-0.0946,-0.0946,-0.0945,0,0,-0.0932,-0.0947,-0.0956,-0.0971,-0.0981,-0.0982,-0.099,-0.0992,-0.0996,-0.1,-0.0994,-0.0988,-0.0985,-0.0986,-0.098,-0.0991,-0.0977,-0.1001,-0.1009,-0.1015,-0.1014,-0.1006,-0.1012,-0.0944,-0.0944,-0.0944,0,0,-0.0925,-0.0937,-0.0938,-0.0955,-0.0967,-0.0963,-0.0977,-0.0976,-0.0983,-0.0987,-0.0963,-0.096,-0.098,-0.096,-0.0947,-0.0968,-0.0934,-0.0936,-0.0983,-0.0992,-0.1,-0.1,-0.0905,0,0,0,0,0,-0.0921,-0.0936,-0.0937,-0.0941,-0.0949,-0.0962,-0.0963,-0.0963,-0.0962,-0.0975,-0.0972,-0.0946,-0.0951,-0.0938,-0.0934,-0.0952,-0.0926,-0.093,-0.0933,-0.0995,-0.1005,-0.1014,0,0,0,0,0,0,-0.0923,-0.0926,-0.0937,-0.0934,-0.0936,-0.0961,-0.0944,-0.0944,-0.0961,-0.0961,-0.0948,-0.0944,-0.0923,-0.0938,-0.0934,-0.0953,-0.0906,-0.0928,-0.093,-0.0933,-0.0999,-0.1007,-0.1014,0,0,0,0,0,-0.0924,-0.0927,-0.0943,-0.0933,-0.0935,-0.0939,-0.0944,-0.0944,-0.0958,-0.0935,-0.0933,-0.0962,-0.0923,-0.092,-0.0936,-0.0955,-0.0908,-0.0907,-0.0929,-0.0931,-0.0933,-0.1003,0,0,0,0,0,0,-0.0924,-0.0918,-0.0943,-0.0943,-0.0936,-0.0938,-0.0939,-0.0944,-0.093,-0.0929,-0.0946,-0.0946,-0.0923,-0.0921,-0.0919,-0.0958,-0.091,-0.0909,-0.0908,-0.0931,-0.0933,-0.0934,0,0,0,0,0,0,-0.0917,-0.0919,-0.0943,-0.0946,-0.0946,-0.0937,-0.0938,-0.0926,-0.0929,-0.094,-0.0941,-0.0946,-0.0926,-0.0921,-0.092,-0.0901,-0.0911,-0.091,-0.0909,-0.0909,-0.0932,-0.0934,0,0,0,0,0,0,-0.0918,-0.0919,-0.0946,-0.0946,-0.0946,-0.0947,-0.0925,-0.0931,-0.0942,-0.094,-0.0942,-0.0942,-0.0926,-0.0924,-0.092,-0.0902,-0.0901,-0.0911,-0.0911,-0.091,-0.091,0,0,0,0,0,0,0,-0.0918,-0.0912,-0.0945,-0.0946,-0.0946,-0.0947,-0.0946,-0.0946,-0.0942,-0.0942,-0.0942,-0.0942,-0.0917,-0.0916,-0.0915,-0.0903,0,0,-0.0911,-0.0911,0,0,0,0,0,0,0,0,-0.0911,-0.0912,-0.0945,-0.0945,-0.0946,-0.0947,-0.0946,-0.0946,-0.0942,-0.0942,-0.0942,-0.0942,-0.0917,-0.0916,-0.0915,0,0,0,0,0,0,0,0,0,0,0,0,0,0,0,-0.0945,-0.0945,0,-0.0946,-0.0946,-0.0946,-0.0942,-0.0942,-0.0942,-0.0942,-0.0917,-0.0916,-0.0915,0,0,0,0,0,0,0,0,0,0,0,0,0,0,0,0,0,0,0,0,0,0,0,0,0,0,0,0,0,0,0,0,0,0,0,0,0,0,0,0,0,0,0,0,0,0,0,0,0,0,0,0,0,0,0,0,0,0,0,0,0,0,0,0,0,0,0,0,0]}],[{"header":{"parameterUnit":"kt","parameterCategory":2,"dx":1,"dy":1,"la1":30.253999710083008,"la2":30.299108505249023,"lo1":-89.0895004272461,"lo2":-89.04439544677734,"nx":28,"ny":28,"refTime":"2022-10-28T21:00:00:Z","depth":"4","parameterNumber":3,"parameterNumberName":"V-component_of_CURRENTS"},"data":[0.011,0.0068,0.0041,-0.0019,-0.0047,-0.0075,-0.0062,-0.0002,0.0028,0.0139,0.0202,0.0305,0.0429,0.0443,0.0576,0.0605,0.0699,0.0814,0.0814,0.1008,0.102,0.1031,0.0911,0,0,0,0,0,0.0128,0.0096,0.005,0.001,-0.0019,-0.0026,-0.0008,0.0019,0.0117,0.0163,0.0239,0.0334,0.0473,0.0569,0.0587,0.0702,0.0848,0.0724,0.0883,0.1015,0.1029,0.0907,0,0,0,0,0,0,0.015,0.0123,0.0095,0.0061,0.0031,0.0015,0.0025,0.0067,0.011,0.0284,0.0317,0.048,0.0611,0.07,0.0776,0.0827,0.0841,0.0864,0.0885,0.09,0.0779,0.0671,0.0635,0,0,0,0,0,0.0178,0.0171,0.0154,0.0112,0.0093,0.008,0.0097,0.0116,0.0222,0.0307,0.0423,0.0529,0.0646,0.078,0.0854,0.0937,0.1113,0.1097,0.1105,0.1077,0.1019,0.1006,0.1002,0.1081,0.1083,0.1084,0.1085,0,0.0211,0.02,0.0187,0.0167,0.0166,0.0168,0.0171,0.0246,0.0282,0.044,0.0474,0.062,0.0724,0.0845,0.0977,0.1089,0.1081,0.1132,0.1102,0.104,0.1026,0.1018,0.1009,0.1096,0.1095,0.1094,0.1093,0,0.0225,0.0229,0.0219,0.0236,0.0237,0.0237,0.0273,0.0303,0.0395,0.047,0.0507,0.0682,0.0795,0.0922,0.1083,0.11,0.1171,0.1161,0.1215,0.1207,0.1037,0.1023,0.1114,0.111,0.1107,0.1104,0.1101,0,0.0248,0.025,0.0252,0.0246,0.0254,0.0295,0.0329,0.0387,0.0474,0.0525,0.0643,0.0708,0.0873,0.0972,0.1039,0.1089,0.1182,0.1094,0.1087,0.1152,0.114,0.1166,0.1153,0.1266,0.1265,0.1265,0.1264,0,0.0259,0.0267,0.0268,0.0273,0.0304,0.0329,0.0359,0.045,0.0491,0.0606,0.0645,0.0778,0.0837,0.0935,0.1011,0.1001,0.1156,0.115,0.1071,0.1061,0.1156,0.1145,0.1263,0.1263,0.1262,0.1262,0.1262,0,0.0274,0.0271,0.0274,0.03,0.0309,0.0324,0.0406,0.0445,0.055,0.059,0.0673,0.0721,0.083,0.0809,0.0963,0.0914,0.0962,0.1002,0.1007,0.0885,0.0835,0.0961,0.1033,0.1031,0.1029,0.1027,0.1025,0,0.028,0.0275,0.0291,0.0303,0.0307,0.0352,0.0396,0.0452,0.0504,0.0566,0.0637,0.0688,0.0696,0.0717,0.0784,0.0844,0.0905,0.0832,0.0948,0.0952,0.0824,0.0862,0.0883,0.0997,0.1001,0.1003,0.1005,0,0.0284,0.0287,0.0289,0.0291,0.0323,0.0333,0.0387,0.0443,0.0485,0.0521,0.0584,0.0645,0.0664,0.0696,0.0721,0.078,0.0862,0.0775,0.0778,0.0823,0.0991,0.0846,0.0848,0.0868,0.0871,0.0873,0.0986,0,0.0289,0.029,0.0292,0.0305,0.0321,0.0332,0.0369,0.0397,0.0422,0.0454,0.052,0.0555,0.0611,0.0618,0.0634,0.0719,0.0714,0.0707,0.0718,0.0751,0.0791,0.0806,0.0624,0.0623,0.0623,0.0623,0,0,0.0296,0.0295,0.0305,0.0306,0.032,0.0341,0.0351,0.038,0.0411,0.0444,0.0431,0.0515,0.0539,0.062,0.0628,0.0627,0.0657,0.0643,0.0719,0.0729,0.0739,0.078,0.0794,0.0623,0.0623,0.0623,0.0623,0,0.0297,0.0304,0.0302,0.031,0.0324,0.0343,0.0345,0.0367,0.0393,0.042,0.0449,0.0486,0.0521,0.0568,0.0594,0.0619,0.0649,0.0614,0.0652,0.0714,0.0725,0.0735,0.0776,0.079,0.0622,0.0622,0.0622,0,0.0302,0.0308,0.0309,0.032,0.0333,0.0345,0.0356,0.0369,0.0393,0.0413,0.0453,0.0472,0.0511,0.0549,0.0566,0.0568,0.0649,0.0605,0.0606,0.063,0.0695,0.0706,0.0716,0.0592,0.0592,0.0592,0,0,0.0304,0.0305,0.0319,0.0322,0.0327,0.0348,0.0358,0.0371,0.0396,0.0409,0.0436,0.0469,0.0504,0.0526,0.0551,0.0584,0.0618,0.0602,0.0603,0.0604,0.0628,0.0693,0.0703,0.0592,0.0592,0.0592,0,0,0.0309,0.0319,0.0324,0.0328,0.0339,0.0363,0.0372,0.0384,0.0411,0.0419,0.0452,0.0462,0.0496,0.0511,0.0504,0.056,0.0554,0.0556,0.0558,0.056,0.0561,0.0584,0.0523,0,0,0,0,0,0.0316,0.0315,0.0319,0.0322,0.0344,0.0357,0.0362,0.0385,0.0395,0.0399,0.0432,0.0447,0.0516,0.0509,0.0517,0.0539,0.0588,0.0588,0.0589,0.0598,0.06,0.0601,0,0,0,0,0,0,0.0317,0.0319,0.0319,0.034,0.0346,0.0357,0.0375,0.0381,0.0396,0.0399,0.044,0.0448,0.0471,0.0507,0.0514,0.0534,0.052,0.0588,0.0589,0.0589,0.0599,0.06,0.0601,0,0,0,0,0,0.0318,0.032,0.0347,0.0341,0.0346,0.0375,0.0375,0.0381,0.0394,0.043,0.0438,0.0411,0.047,0.0479,0.0511,0.053,0.0516,0.0518,0.0588,0.0589,0.0589,0.0599,0,0,0,0,0,0,0.0319,0.0329,0.0349,0.0351,0.0343,0.0375,0.038,0.038,0.0426,0.0433,0.0403,0.0405,0.047,0.0476,0.0482,0.0528,0.0512,0.0514,0.0516,0.0589,0.0589,0.059,0,0,0,0,0,0,0.0329,0.0331,0.035,0.0351,0.0354,0.0375,0.0379,0.0404,0.0427,0.0397,0.0399,0.0403,0.0465,0.0474,0.048,0.0518,0.0509,0.0511,0.0513,0.0514,0.0589,0.0589,0,0,0,0,0,0,0.0331,0.0333,0.0351,0.0353,0.0356,0.0391,0.0399,0.0424,0.0416,0.0395,0.0417,0.0418,0.0463,0.0468,0.0477,0.0513,0.0516,0.0509,0.0511,0.0512,0.0513,0,0,0,0,0,0,0,0.0332,0.0306,0.033,0.0355,0.0357,0.0378,0.0379,0.038,0.0416,0.0417,0.0417,0.0417,0.0495,0.0498,0.05,0.0509,0,0,0.0509,0.051,0,0,0,0,0,0,0,0,0.0306,0.0306,0.033,0.0331,0.0331,0.0378,0.0379,0.038,0.0416,0.0417,0.0417,0.0417,0.0496,0.0498,0.05,0,0,0,0,0,0,0,0,0,0,0,0,0,0,0,0.033,0.0331,0,0.0378,0.0379,0.0379,0.0416,0.0417,0.0417,0.0417,0.0496,0.0498,0.05,0,0,0,0,0,0,0,0,0,0,0,0,0,0,0,0,0,0,0,0,0,0,0,0,0,0,0,0,0,0,0,0,0,0,0,0,0,0,0,0,0,0,0,0,0,0,0,0,0,0,0,0,0,0,0,0,0,0,0,0,0,0,0,0,0,0,0,0,0]}]]]